Regional Weather Roundup
Issued by NWS

Home | Current Version | Previous Version | Text Only | Print | Product List | Glossary On
Versions: 1 2 3 4 5 6 7 8 9 10 11 12 13 14 15 16 17 18 19 20 21 22 23 24 25 26 27 28 29 30 31 32 33 34 35 36 37 38 39 40 41 42 43 44 45 46 47 48 49 50
000
ASUS45 KTFX 270219
RWRMT
MONTANA HOURLY WEATHER ROUNDUP
NATIONAL WEATHER SERVICE GREAT FALLS MT
719 PM MST WED NOV 26 2014

NOTE: "FAIR" INDICATES FEW OR NO CLOUDS BELOW 12000 FEET WITH NO
SIGNIFICANT WEATHER AND/OR OBSTRUCTIONS TO VISIBILITY.

* THESE STATIONS ARE NOT UNDER NWS QUALITY CONTROL. THEY DO NOT
   REPORT WEATHER SUCH AS PRECIPITATION OR FOG.

MTZ001>007-043-270300-
WEST OF THE DIVIDE
CITY           SKY/WX    TMP DP  RH WIND       PRES   REMARKS
KALISPELL      LGT SNOW  32  32 100 CALM      30.09F VSB 2
MISSOULA       FOG       32  32 100 CALM      30.13F
BUTTE          CLOUDY    39  28  65 N9        30.13S WCI  33
MULLAN PASS    FOG       36  36 100 VRB7      30.07F VSB 1 1/4 WCI  30
* ESSEX        N/A       31  30  96 N/A        N/A
* EUREKA APT   CLOUDY    34  32  92 CALM      30.05F
* HAMILTON APT CLOUDY    37  32  82 N7        30.11S WCI  32
* LIBBY APT    CLOUDY   N/A N/A N/A CALM      30.08F VSB 2 1/2
* LINCOLN      N/A       37  34  89 S4         N/A
* LOOKOUT PASS N/A       39  37  93 N2         N/A
* POLSON       N/A       36  36 100 SE2        N/A
* RONAN APT    CLOUDY    34  30  85 N/A        N/A
* SEELEY LAKE  N/A       32  31  96 W2         N/A
* THOMP F APT  CLOUDY    33  31  92 NE3        N/A
* YAAK HILL    N/A       32  30  92 E1         N/A
$$

MTZ008-052>055-270300-
SOUTHWEST MONTANA
CITY           SKY/WX    TMP DP  RH WIND       PRES   REMARKS
BOZEMAN        CLOUDY    28  27  96 CALM      30.12F
DILLON         CLOUDY    39  28  65 S8        30.14F WCI  33
* W YELLOWSTON CLOUDY    35  34  96 SW5G13     N/A   WCI  31
* ENNIS APT    CLOUDY    46  27  48 SE8        N/A
* THREE FORKS  CLOUDY    25   5  42 N/A        N/A
* BOULDER HILL N/A       36  29  76 SW9        N/A   WCI  29
* MONIDA PASS  N/A       31  31 100 SE17       N/A   WCI  20
* RAYNOLDS PAS N/A       33  15  47 SE17       N/A   WCI  22
* WHITEHALL    N/A       46  32  58 SW13G21    N/A
* WISE RIVER   N/A       41  28  60 SW3G10     N/A
$$

MTZ009>010-012-014-046-048-049-054-270300-
EAST SLOPES AND CENTRAL MONTANA
CITY           SKY/WX    TMP DP  RH WIND       PRES   REMARKS
CUT BANK       FOG       28  27  96 SE14      30.04F VSB 1 3/4 WCI  17
GREAT FALLS    FOG       25  25 100 SE5       30.05F VSB 1/2  WCI  19
HELENA         FOG       28  27  96 SW3       30.10F VSB 3
MALMSTROM AFB  FOG       27  27 100 NE3       30.08F VSB 1/2
* CONRAD       CLOUDY    28  28 100 E6         N/A   WCI  21
* DEARBORN     N/A       30  29  96 S2         N/A
* EAST GLACIER N/A       36  32  85 S8G14      N/A   WCI  30
* MONARCH      N/A       38  27  65 W15G22     N/A   WCI  29
* PENDROY      N/A       27  27 100 S9         N/A   WCI  18
* SAINT MARY   N/A       35  33  92 W5G15      N/A   WCI  31
* SWEET GRASS  N/A       26  26 100 S17        N/A   WCI  13
* WHITE SULPH  N/A       32  28  85 NE5G12     N/A   WCI  27
$$

MTZ011-013-016-021-035-040-045-047-050-051-270300-
NORTH CENTRAL MONTANA
CITY           SKY/WX    TMP DP  RH WIND       PRES   REMARKS
HAVRE          LGT SNOW  30  27  89 E10       30.15F VSB 3    WCI  21
LEWISTOWN      CLOUDY    28  23  81 E13       30.08F WCI  17
* N BAR RANCH  CLOUDY    27  25  92 S9        30.11S WCI  18
* CHINOOK      CLOUDY    28  27  96 E8        30.18F VSB 3    WCI  20
* FORT BENTON  CLOUDY    30  27  89 NE8       30.12F WCI  22
* MALTA APT    CLOUDY    28  21  75 E6         N/A   WCI  21
* CHESTER      N/A       27  25  92 SE10G16    N/A   WCI  18
* DENTON       N/A       28  27  96 NE1        N/A
* GEYSER       N/A       27  26  96 NE1        N/A
* JUDITH GAP   N/A       25  25 100 S12        N/A   WCI  14
* LOMA         N/A       29  27  92 NE17       N/A   WCI  17
$$

MTZ017>020-022>027-061-062-270300-
NORTHEAST MONTANA
CITY           SKY/WX    TMP DP  RH WIND       PRES   REMARKS
GLASGOW        CLOUDY    18  10  71 E18       30.27S WCI   2
GLENDIVE       MOCLDY    16  10  77 NE7       30.31S WCI   6
JORDAN         MOCLDY    27  25  92 E7        30.24F WCI  19
SIDNEY         MOCLDY    10   7  88 N3        30.38S
WOLF POINT     CLOUDY    16   9  74 E10       30.34F WCI   4
* BEAVER HILL  N/A       16  12  84 E8         N/A   WCI   5
* CIRCLE       N/A       21  17  84 N/A        N/A
* LINDSAY DVD  N/A       17  15  92 SE6        N/A   WCI   8
* NAVAJO       N/A        8   4  84 SE4        N/A
* PLENTYWOOD A MOCLDY     9   3  76 N/A       30.33S
* POPLAR APT   CLOUDY    12   7  80 N/A       30.35S
* SACO         N/A       21  17  84 E12G17     N/A   WCI   9
* SCOBEY APT   MOCLDY    12   3  67 N/A        N/A
$$

MTZ028>042-056>058-270300-
SOUTHCENTRAL AND SOUTHEAST MONTANA
CITY           SKY/WX    TMP DP  RH WIND       PRES   REMARKS
BAKER          CLOUDY    18  16  92 S6        30.27F WCI  10
BILLINGS       CLOUDY    28  27  96 E7        30.15F WCI  21
LIVINGSTON     CLOUDY    46  30  54 SW23G32   30.09S
MILES CITY     LGT SNOW  27  23  85 E5        30.27S VSB 2 1/2 WCI  21
* BIG TIMBER A CLOUDY    27  25  92 E5        30.11S VSB 2    WCI  21
* FORSYTH APT  MOCLDY    28  28 100 E7        30.23F VSB 3    WCI  21
* LAUREL APT   CLOUDY    27  21  78 N/A        N/A
* ALZADA       N/A       26  24  92 NE7        N/A   WCI  18
* HYSHAM       N/A       28  26  92 SE4        N/A
* REED POINT   N/A       29  28  96 E4         N/A
* ROSCOE HILL  N/A       29  23  78 SE4        N/A
$$

REGIONAL REPORTS...DAKOTAS
CITY           SKY/WX    TMP DP  RH WIND       PRES   REMARKS
WILLISTON      CLOUDY     9   3  76 NE5       30.38S
DICKINSON      CLOUDY    12   9  88 SE7       30.31R WCI   1
BEACH          MOCLDY    12  10  92 SE3       30.30S
CROSBY         CLEAR    -13 -18  78 SW3       30.40S
TIOGA          PTCLDY    -8  -9  95 CALM      30.39S
BISMARCK       MOCLDY    -6 -11  78 NE6       30.46R WCI -19
GRAND FORKS    PTCLDY    -9 -15  74 N7        30.53S WCI -24
FARGO          PTCLDY    -6 -11  78 N7        30.53R WCI -20
BUFFALO SD     PTCLDY    19  16  88 E6        30.21F WCI  11
RAPID CITY     LGT SNOW  28  25  89 CALM      30.28R
$$

REGIONAL REPORTS...WYOMING/IDAHO/WASHINGTON
CITY           SKY/WX    TMP DP  RH WIND       PRES   REMARKS
GILLETTE       CLOUDY    27  25  92 S6        30.19F WCI  20
SHERIDAN       CLOUDY    28  25  89 NE3       30.16F
CODY           CLOUDY    21  21 100 CALM      30.13F VSB M1/4
YELLOWSTONE LA CLOUDY    34  30  85 N/A       30.27F
SALMON         CLOUDY    30  28  92 W5        30.18F VSB M1/4 WCI  25
MULLAN PASS    FOG       36  36 100 VRB7      30.07S VSB 1 1/4 WCI  30
SAND POINT     FOG       34  34 100 CALM      30.08F
SPOKANE        FOG       36  36 100 S6        30.05F WCI  31
$$

REGIONAL REPORTS...ALBERTA
CITY           SKY/WX    TMP DP  RH WIND       PRES   REMARKS
CALGARY        LGT SNOW  27  25  92 SE8       30.01F VSB 2    WCI  19
LETHBRIDGE     LGT SNOW  30  28  92 SE9       30.05F WCI  22
MEDICINE HAT   LGT SNOW  27  27 100 E5        30.14F WCI  21
EDMONTON       CLOUDY    14  10  84 E2        30.09F
WATERTON GATE  N/A       28  27  96 E3         N/A
CARDSTON       N/A       28  28 100 SE8        N/A   WCI  20
MILK RIVER     N/A       27  27 100 SE14       N/A   WCI  16
$$

REGIONAL REPORTS...SASKATCHEWAN
CITY           SKY/WX    TMP DP  RH WIND       PRES   REMARKS
SWIFT CURRENT  MOCLDY    16  14  92 S13       30.18F WCI   2
REGINA         FAIR      -4  -9  79 SE12      30.37S WCI -22
VAL MARIE      N/A       23  21  92 S12        N/A   WCI  11
ASSINIBOIA     N/A       12   7  80 SE7        N/A   WCI   1
CORONACH       N/A       12  10  92 SE8        N/A

$$




USA.gov is the U.S. government's official web portal to all federal, state and local government web resources and services.